GW3780 Weather Reports


Display with metric or nautical units.
time (UTC)temp
F
wind
direction
speed
MPH
gust
MPH
rain 1hr
in
rain 24hr
in
rain mn
in
humidity
%
barometer
mb
20260504021602 50 15 0.0 2.0 0.00 0.00 0.00 59 1017.5
20260504021058 50 147 0.0 0.0 0.00 0.00 0.00 58 1017.3
20260504020555 50 149 0.0 1.0 0.00 0.00 0.00 58 1017.3
20260504020051 50 134 0.0 1.0 0.00 0.00 0.00 58 1017.3
20260504015548 51 22 0.0 0.0 0.00 0.00 0.00 58 1017.2
20260504015044 51 4 0.0 0.0 0.00 0.00 0.00 57 1017.3
20260504014540 51 19 0.0 1.0 0.00 0.00 0.00 57 1017.2
20260504014038 51 117 0.0 1.0 0.00 0.00 0.00 54 1017.1
20260504013535 51 55 0.0 0.0 0.00 0.00 0.00 55 1017.1
20260504013032 51 104 0.0 2.0 0.00 0.00 0.00 55 1017.0
20260504012529 52 38 0.0 2.0 0.00 0.00 0.00 56 1017.0
20260504012022 52 17 0.0 1.0 0.00 0.00 0.00 55 1017.2
20260504011518 52 130 0.0 1.0 0.00 0.00 0.00 54 1017.1
20260504011014 52 147 0.0 0.0 0.00 0.00 0.00 54 1017.1
20260504010510 53 44 0.0 0.0 0.00 0.00 0.00 53 1017.2
20260504010006 53 202 0.0 1.0 0.00 0.00 0.00 51 1017.1
20260504005503 53 126 0.0 1.0 0.00 0.00 0.00 51 1017.1
20260504005000 53 44 0.0 2.0 0.00 0.00 0.00 51 1017.2
20260504004458 53 53 0.0 0.0 0.00 0.00 0.00 51 1017.2
20260504003955 54 23 0.0 1.0 0.00 0.00 0.00 50 1017.0
20260504003450 54 66 0.0 1.0 0.00 0.00 0.00 49 1017.0
20260504002948 55 78 0.0 1.0 0.00 0.00 0.00 49 1016.8
20260504002445 55 14 0.0 1.0 0.00 0.00 0.00 47 1017.1
20260504001942 55 36 0.0 2.0 0.00 0.00 0.00 47 1016.9
20260504001440 56 315 0.0 2.0 0.00 0.00 0.00 46 1016.9
20260504000936 56 329 0.0 2.0 0.00 0.00 0.00 44 1016.8
20260504000433 57 254 0.0 1.0 0.00 0.00 0.00 45 1016.9
20260503235930 57 31 0.0 1.0 0.00 0.00 0.00 43 1016.8
20260503235428 58 95 0.0 1.0 0.00 0.00 0.00 41 1016.7
20260503234925 59 56 0.0 2.0 0.00 0.00 0.00 40 1016.7
20260503234423 59 4 0.0 2.0 0.00 0.00 0.00 37 1016.6
20260503233921 60 29 1.0 2.0 0.00 0.00 0.00 37 1016.4
20260503233417 59 177 1.0 2.0 0.00 0.00 0.00 37 1016.5
20260503232913 60 31 0.0 1.0 0.00 0.00 0.00 38 1016.5
20260503232411 60 162 0.0 2.0 0.00 0.00 0.00 35 1016.5
20260503231908 60 178 0.0 2.0 0.00 0.00 0.00 35 1016.5
20260503231405 60 141 0.0 3.0 0.00 0.00 0.00 35 1016.4
20260503230902 60 165 1.0 2.0 0.00 0.00 0.00 34 1016.4
20260503230358 60 311 1.0 2.0 0.00 0.00 0.00 35 1016.4
20260503225856 60 165 1.0 2.0 0.00 0.00 0.00 35 1016.5
20260503225352 61 287 1.0 3.0 0.00 0.00 0.00 35 1016.6
20260503224848 61 201 2.0 3.0 0.00 0.00 0.00 33 1016.7
20260503224345 61 258 1.0 1.0 0.00 0.00 0.00 35 1016.6
20260503223843 61 279 0.0 5.0 0.00 0.00 0.00 34 1016.6
20260503223341 61 1 2.0 2.0 0.00 0.00 0.00 34 1016.9
20260503222836 61 315 0.0 3.0 0.00 0.00 0.00 33 1016.5
20260503222335 61 159 2.0 3.0 0.00 0.00 0.00 33 1016.4
20260503221832 61 312 2.0 3.0 0.00 0.00 0.00 33 1016.9
20260503221331 61 337 1.0 3.0 0.00 0.00 0.00 33 1016.8
20260503220826 62 167 3.0 3.0 0.00 0.00 0.00 34 1016.8
20260503220323 62 164 2.0 3.0 0.00 0.00 0.00 33 1016.7
20260503215814 61 199 0.0 2.0 0.00 0.00 0.00 34 1016.9
20260503215312 62 33 0.0 2.0 0.00 0.00 0.00 33 1016.8
20260503214810 62 284 1.0 2.0 0.00 0.00 0.00 33 1016.9
20260503214306 62 309 3.0 3.0 0.00 0.00 0.00 34 1016.9
20260503213804 62 165 0.0 2.0 0.00 0.00 0.00 33 1016.8
20260503213302 62 265 1.0 2.0 0.00 0.00 0.00 34 1016.9
20260503212758 62 223 2.0 5.0 0.00 0.00 0.00 31 1016.6
20260503212256 62 31 3.0 4.0 0.00 0.00 0.00 32 1016.6
20260503211753 62 111 0.0 3.0 0.00 0.00 0.00 32 1016.7
20260503211250 62 37 1.0 5.0 0.00 0.00 0.00 31 1016.7
20260503210744 62 45 0.0 4.0 0.00 0.00 0.00 31 1016.7
20260503210242 62 234 0.0 3.0 0.00 0.00 0.00 32 1016.9
20260503205737 62 57 0.0 3.0 0.00 0.00 0.00 32 1016.9
20260503205234 62 183 3.0 4.0 0.00 0.00 0.00 30 1016.7
20260503204730 62 315 2.0 2.0 0.00 0.00 0.00 33 1016.8
20260503204228 62 117 2.0 4.0 0.00 0.00 0.00 32 1016.8
20260503203725 61 154 0.0 4.0 0.00 0.00 0.00 31 1016.7
20260503203222 62 296 4.0 6.0 0.00 0.00 0.00 30 1016.9
20260503202719 62 180 0.0 6.0 0.00 0.00 0.00 32 1016.9
20260503202217 62 60 1.0 2.0 0.00 0.00 0.00 33 1017.1
20260503201715 62 314 1.0 3.0 0.00 0.00 0.00 35 1017.0
20260503201212 62 158 3.0 3.0 0.00 0.00 0.00 32 1016.9
20260503200708 61 76 2.0 4.0 0.00 0.00 0.00 32 1017.0
20260503200205 61 187 0.0 5.0 0.00 0.00 0.00 32 1017.2
20260503195702 62 286 1.0 2.0 0.00 0.00 0.00 33 1017.2
20260503195159 61 358 1.0 5.0 0.00 0.00 0.00 33 1017.5
20260503194655 62 211 2.0 4.0 0.00 0.00 0.00 32 1017.3
20260503194151 62 144 2.0 5.0 0.00 0.00 0.00 33 1017.6
20260503193648 62 300 1.0 3.0 0.00 0.00 0.00 32 1017.5
20260503193143 62 316 0.0 3.0 0.00 0.00 0.00 31 1017.5
20260503192639 62 265 2.0 4.0 0.00 0.00 0.00 33 1017.8
20260503192135 62 12 4.0 5.0 0.00 0.00 0.00 30 1017.7
20260503191632 62 123 3.0 3.0 0.00 0.00 0.00 33 1017.7
20260503191129 62 243 0.0 4.0 0.00 0.00 0.00 32 1017.9
20260503190626 62 89 2.0 4.0 0.00 0.00 0.00 32 1018.2
20260503190123 63 342 4.0 4.0 0.00 0.00 0.00 33 1018.1
20260503185620 63 151 0.0 5.0 0.00 0.00 0.00 33 1017.9
20260503185115 62 316 1.0 4.0 0.00 0.00 0.00 34 1018.2
20260503184610 62 343 2.0 6.0 0.00 0.00 0.00 33 1018.1
20260503184107 63 332 2.0 4.0 0.00 0.00 0.00 32 1018.3
20260503183603 62 37 0.0 3.0 0.00 0.00 0.00 33 1018.5
20260503183101 61 194 3.0 5.0 0.00 0.00 0.00 33 1018.4
20260503182559 61 209 0.0 6.0 0.00 0.00 0.00 34 1018.5
20260503182057 61 271 4.0 5.0 0.00 0.00 0.00 34 1018.7
20260503181553 62 203 4.0 5.0 0.00 0.00 0.00 32 1018.6
20260503181050 62 289 1.0 2.0 0.00 0.00 0.00 34 1018.3
20260503180547 62 18 1.0 3.0 0.00 0.00 0.00 34 1018.7
20260503180044 62 83 2.0 4.0 0.00 0.00 0.00 32 1018.8
20260503175541 62 296 2.0 6.0 0.00 0.00 0.00 33 1018.6
20260503175038 60 113 0.0 2.0 0.00 0.00 0.00 35 1018.7
20260503174536 60 210 2.0 2.0 0.00 0.00 0.00 35 1018.7
20260503174032 60 279 2.0 5.0 0.00 0.00 0.00 36 1018.5
20260503173527 60 311 2.0 5.0 0.00 0.00 0.00 34 1018.7
20260503173024 60 169 2.0 5.0 0.00 0.00 0.00 35 1018.8
20260503172521 59 185 1.0 3.0 0.00 0.00 0.00 35 1018.8
20260503172018 60 7 2.0 4.0 0.00 0.00 0.00 35 1018.9
20260503171515 59 62 5.0 5.0 0.00 0.00 0.00 36 1018.8
20260503171012 59 89 0.0 3.0 0.00 0.00 0.00 36 1018.9
20260503170508 59 335 3.0 6.0 0.00 0.00 0.00 36 1019.0
20260503150901 54 58 2.0 4.0 0.00 0.00 0.00 38 1019.8
20260503150357 53 148 3.0 4.0 0.00 0.00 0.00 40 1019.9
20260503131250 53 134 2.0 4.0 0.00 0.00 0.00 45 1019.7
20260503130748 52 341 1.0 7.0 0.00 0.00 0.00 47 1019.8
20260503130245 51 61 1.0 6.0 0.00 0.00 0.00 49 1019.8
20260503120211 44 3 0.0 2.0 0.00 0.00 0.00 75 1019.5
20260503110639 41 353 0.0 1.0 0.00 0.00 0.00 79 1018.5
20260503110136 41 38 1.0 2.0 0.00 0.00 0.00 80 1018.8
20260503081440 47 355 0.0 3.0 0.00 0.00 0.00 63 1016.4
20260503080937 47 17 0.0 2.0 0.00 0.00 0.00 62 1016.2
20260503080434 47 160 1.0 2.0 0.00 0.00 0.00 62 1016.3
20260503072910 48 29 2.0 9.0 0.00 0.00 0.00 59 1016.1
20260503072408 48 258 2.0 4.0 0.00 0.00 0.00 59 1015.9
20260503071904 49 229 0.0 3.0 0.00 0.00 0.00 59 1015.8
20260503071402 49 343 1.0 10.0 0.00 0.00 0.00 58 1015.7
20260503070857 49 12 0.0 5.0 0.00 0.00 0.00 58 1015.9
20260503070355 49 59 1.0 3.0 0.00 0.00 0.00 59 1015.6
20260503060320 50 66 0.0 4.0 0.00 0.00 0.00 60 1014.9
20260503054809 51 23 0.0 2.0 0.00 0.00 0.00 61 1015.2
20260503054304 51 167 0.0 2.0 0.00 0.00 0.00 61 1015.2
20260503053802 51 9 1.0 2.0 0.00 0.00 0.00 62 1015.2
20260503053301 51 13 0.0 2.0 0.00 0.00 0.00 61 1014.9
20260503052756 51 344 2.0 4.0 0.00 0.00 0.00 60 1015.2
20260503052253 51 48 0.0 2.0 0.00 0.00 0.00 61 1014.9
20260503051749 51 328 2.0 2.0 0.00 0.00 0.00 62 1015.0
20260503051246 51 328 0.0 2.0 0.00 0.00 0.00 62 1015.1
20260503050742 51 42 0.0 2.0 0.00 0.00 0.00 62 1015.1
20260503050233 51 236 1.0 3.0 0.00 0.00 0.00 62 1014.9
20260503045731 51 66 1.0 2.0 0.00 0.00 0.00 63 1015.1
20260503045228 51 202 0.0 2.0 0.00 0.00 0.00 63 1015.0
20260503044724 51 329 0.0 3.0 0.00 0.00 0.00 64 1014.8
20260503044222 51 20 3.0 3.0 0.00 0.00 0.00 65 1014.8
20260503043718 51 310 2.0 2.0 0.00 0.00 0.00 65 1015.0
20260503043216 51 77 0.0 1.0 0.00 0.00 0.00 66 1015.0
20260503042712 51 12 0.0 2.0 0.00 0.00 0.00 65 1014.9
20260503042209 52 20 0.0 2.0 0.00 0.00 0.00 64 1014.9
20260503041704 52 359 0.0 1.0 0.00 0.00 0.00 65 1014.9
20260503041203 52 38 0.0 1.0 0.00 0.00 0.00 64 1014.9
20260503040659 52 345 0.0 2.0 0.00 0.00 0.00 64 1014.8
20260503040157 52 29 1.0 1.0 0.00 0.00 0.00 64 1014.9
20260503035654 52 7 0.0 2.0 0.00 0.00 0.00 64 1014.9
20260503035151 52 303 0.0 2.0 0.00 0.00 0.00 64 1014.8
20260503034649 52 343 2.0 2.0 0.00 0.00 0.00 63 1014.8
20260503034145 51 58 0.0 3.0 0.00 0.00 0.00 66 1015.0
20260503033643 51 6 0.0 1.0 0.00 0.00 0.00 68 1015.1
20260503033140 52 4 0.0 2.0 0.00 0.00 0.00 69 1015.0
20260503032638 51 8 1.0 2.0 0.00 0.00 0.00 67 1015.0
20260503032137 51 102 0.0 1.0 0.00 0.00 0.00 68 1014.7
20260503031634 51 80 0.0 2.0 0.00 0.00 0.00 69 1014.7
20260503031131 51 6 0.0 1.0 0.00 0.00 0.00 70 1014.7
20260503030627 52 29 0.0 0.0 0.00 0.00 0.00 67 1014.8
20260503030124 51 37 0.0 1.0 0.00 0.00 0.00 69 1014.7
20260503025621 52 346 0.0 2.0 0.00 0.00 0.00 69 1014.8
20260503025119 52 28 0.0 2.0 0.00 0.00 0.00 69 1014.8
20260503024615 52 124 0.0 1.0 0.00 0.00 0.00 68 1014.9
20260503024112 52 329 0.0 1.0 0.00 0.00 0.00 72 1014.8
20260503023609 52 341 0.0 2.0 0.00 0.00 0.00 71 1014.8
20260503023106 52 6 1.0 2.0 0.00 0.00 0.00 69 1014.6
20260503022602 52 45 0.0 1.0 0.00 0.00 0.00 70 1014.7
20260503022056 52 20 0.0 2.0 0.00 0.00 0.00 69 1014.7